Location: Gwatt
(46.7204°N, 7.6223°E)
Time: 11:05:33
(UTC+00:00)

Cosmos 2263 Rocket - Pass Details

Date: 18 September 2020
Orbit: 822 x 850 km, 71.0° (Epoch: 24 October)

Event Time Altitude Azimuth Distance (km) Brightness Sun altitude
Rises 19:31:34 0° 236° (SW) 3,350 5.7 -20.2°
Reaches altitude 10° 19:34:15 10° 246° (WSW) 2,423 5.1 -20.6°
Maximum altitude 19:39:11 32° 309° (NW) 1,397 4.0 -21.4°
Drops below altitude 10° 19:44:10 10° 12° (NNE) 2,447 4.8 -22.1°
Sets 19:46:53 0° 22° (NNE) 3,389 5.4 -22.5°
